STARLINK-35275

Last updated on Mon Oct 20 2025 00:02:06 GMT+0000 (Coordinated Universal Time)

1 65756U 25216Y 25292.23145625 .00127861 00000+0 22658-2 0 9992 2 65756 53.1589 272.2204 0001394 95.5703 264.5466 15.49356440 4858
UTC large
Height (km)
Speed (km/s)
/
Latitude / Longitude
Inclination (degrees)
Orbital Period (minutes)
Azimuth
Elevation
Range (km)
Doppler Factor

Next 0 passes for location: London (51.5072 / 0.1276)

Sorry there are no passes over London.